{"data":{"norad_id":61193,"intl_designator":"2024-169E","name":"JILIN-01 KUANFU 02B 5","alt_names":[],"object_type":"PAYLOAD","status":"ACTIVE","operator":null,"country":"PRC","launch_date":"2024-09-20","launch_site_code":"TAISC","launch_vehicle":null,"mission":null,"orbit_class":"UNKNOWN","rcs_meters":null,"size_class":null,"mass_kg":null,"dimensions":null,"purposes":[],"wikipedia_slug":null,"has_3d_model":false,"image_url":null,"decayed_at":null,"tle_current":{"epoch":"2026-09-22T20:34:19.227072Z","epoch_age_seconds":91023,"freshness":"FRESH","line1":"1 61193U 24169E   26265.85716698  .00002685  00000+0  17146-3 0  9995","line2":"2 61193  97.5551 354.0494 0011983 320.1934  39.8414 15.09462423110565","mean_motion":15.09462423,"eccentricity":0.0011983,"inclination_deg":97.5551,"raan_deg":354.0494,"arg_perigee_deg":320.1934,"mean_anomaly_deg":39.8414,"bstar":0.00017146,"rev_number":11056,"period_min":95.398201244258,"perigee_km":529.55412753906,"apogee_km":546.12896171911,"semimajor_km":6915.9785446291,"source":"CELESTRAK","updated_at":"2026-09-23T09:00:20.813389Z"}}}